Regional Weather Roundup
Issued by NWS

Home | Current Version | Previous Version | Text Only | Print | Product List | Glossary On
Versions: 1 2 3 4 5 6 7 8 9 10 11 12 13 14 15 16 17 18 19 20 21 22 23 24 25 26 27 28 29 30 31 32 33 34 35 36 37 38 39 40 41 42 43 44 45 46 47 48 49 50
000
ASUS44 KMEG 242310
RWRTN
TENNESSEE HOURLY STATE WEATHER ROUNDUP
NATIONAL WEATHER SERVICE MEMPHIS TN
600 PM CDT FRI OCT 24 2014

TNZ002-004-019-021-049-052-054-088>092-250000-
WEST TENNESSEE

CITY           SKY/WX    TMP DP  RH WIND       PRES   REMARKS
MEMPHIS INTL   PTCLDY    71  53  52 CALM      30.08S
NWS MEMPHIS      N/A     69 N/A N/A MISG        N/A
JACKSON        PTCLDY    68  52  56 NW3       30.08R
DYERSBURG      CLEAR     68  46  45 CALM      30.08F
UNION CITY     CLEAR     66  52  59 CALM      30.06F
PARIS          PTCLDY    63  52  67 CALM      30.08R
HUNTINGDON     PTCLDY    63  51  64 CALM      30.07S
LEXINGTON      CLEAR     66  54  63 CALM      30.07R
SAVANNAH       PTCLDY    63  54  72 CALM      30.08S
$$

TNZ008-025-027-028-033-062-065-066-250000-
NORTH MIDDLE TENNESSEE

CITY           SKY/WX    TMP DP  RH WIND       PRES   REMARKS
NASHVILLE      MOCLDY    65  46  50 NW5       30.07R
CLARKSVILLE    PTCLDY    65  52  62 NW5       30.07R
SMYRNA         PTCLDY    62  49  62 CALM      30.07S
COOKEVILLE     CLEAR     54  46  76 CALM      30.07R
CROSSVILLE     CLEAR     61  36  39 NW6       30.07S
$$

TNZ061-075-076-078-094-096-097-250000-
SOUTH MIDDLE TENNESSEE

CITY           SKY/WX    TMP DP  RH WIND       PRES   REMARKS
FAYETTEVILLE   CLEAR     61  39  44 N3        30.06S
TULLAHOMA      CLEAR     57  43  58 N5        30.07S
WINCHESTER     CLEAR     63  43  48 CALM      30.06S
MCMINNVILLE    CLEAR     61  41  48 CALM      30.07R
COLUMBIA       CLEAR     66  48  52 CALM      30.06R
SHELBYVILLE    CLEAR     64  46  52 CALM      30.07S
$$

TNZ017-018-042-046-047-250000-
NORTHEAST TENNESSEE

CITY           SKY/WX    TMP DP  RH WIND       PRES   REMARKS
TRI CITIES     PTCLDY    55  42  61 W3        30.04S
ELIZABETHTON   CLEAR     48  43  81 NW5       30.05R
$$

TNZ012-013-036-069-073-074-250000-
CENTRAL EAST TENNESSEE

CITY           SKY/WX    TMP DP  RH WIND       PRES   REMARKS
KNOXVILLE      PTCLDY    61  40  45 CALM      30.03R
OAK RIDGE      CLEAR     61  49  64 CALM      30.06R
GATLINBURG     PTCLDY    55  41  58 CALM      30.04R
MORRISTOWN     MOCLDY    61  45  55 CALM      30.06R
$$

TNZ083-085-099-250000-
SOUTHEAST TENNESSEE

CITY           SKY/WX    TMP DP  RH WIND       PRES   REMARKS
CHATTANOOGA    PTCLDY    65  46  50 NW3       30.03R
$$

SKY/WX REPORTED AS FAIR MEANS FEW OR NO CLOUDS BELOW
12 THOUSAND FEET.




USA.gov is the U.S. government's official web portal to all federal, state and local government web resources and services.